Location: Chervonnoye
(48.6000°N, 34.4000°E)
Time: 21:20:53
(UTC+00:00)

RS-44 - Pass Details

Date: 30 November 2021
Orbit: 1175 x 1510 km, 82.5° (Epoch: 19 January)

Event Time Altitude Azimuth Distance (km) Brightness Sun altitude
Rises 01:57:00 0° 358° (N) 4,109 ? -31.5°
Reaches altitude 10° 02:01:59 10° 28° (NNE) 3,190 ? -30.6°
Maximum altitude 02:04:46 12° 50° (NE) 3,054 ? -30.2°
Drops below altitude 10° 02:07:35 10° 72° (ENE) 3,259 ? -29.7°
Sets 02:12:47 0° 101° (E) 4,304 ? -28.9°
